Wetterdaten: Freitag, 11.09.2015
Datum Zeit Temp. A. Feuchte A. Luftdruck Regen Wind Richtung Richtung Sonnenschein ET UV Solar Taupunkt Windchill Windben Empfang
11.09.2015 00:00 9,2 C 85 % 1018,7 hPa 0,0 l/m 2,9 km/h (1 Bft) O 93 0 min 0,000 mm 0,0 UV-I 0 W/m 6,8 C 9,2 C 4,0 km/h (1 Bft) 0,00 %
11.09.2015 00:05 9,3 C 85 % 1018,5 hPa 0,0 l/m 0,0 km/h (0 Bft) O-NO 58 0 min 0,000 mm 0,0 UV-I 0 W/m 6,9 C 9,3 C 0,0 km/h (0 Bft) 0,00 %
11.09.2015 00:10 9,2 C 85 % 1018,7 hPa 0,0 l/m 0,0 km/h (0 Bft) NO 56 0 min 0,000 mm 0,0 UV-I 0 W/m 6,8 C 9,2 C 0,0 km/h (0 Bft) 0,00 %
11.09.2015 00:15 9,1 C 86 % 1018,6 hPa 0,0 l/m 0,0 km/h (0 Bft) O 81 0 min 0,000 mm 0,0 UV-I 0 W/m 6,9 C 9,1 C 0,0 km/h (0 Bft) 0,00 %
11.09.2015 00:20 8,8 C 87 % 1018,4 hPa 0,0 l/m 0,0 km/h (0 Bft) NO 56 0 min 0,000 mm 0,0 UV-I 0 W/m 6,8 C 8,8 C 0,0 km/h (0 Bft) 0,00 %
11.09.2015 00:25 8,6 C 87 % 1018,5 hPa 0,0 l/m 0,0 km/h (0 Bft) O-NO 69 0 min 0,000 mm 0,0 UV-I 0 W/m 6,6 C 8,6 C 0,0 km/h (0 Bft) 0,00 %
11.09.2015 00:30 8,4 C 88 % 1018,6 hPa 0,0 l/m 0,0 km/h (0 Bft) NO 56 0 min 0,000 mm 0,0 UV-I 0 W/m 6,5 C 8,4 C 0,0 km/h (0 Bft) 0,00 %
11.09.2015 00:35 8,3 C 89 % 1018,4 hPa 0,0 l/m 0,0 km/h (0 Bft) O-NO 65 0 min 0,000 mm 0,0 UV-I 0 W/m 6,6 C 8,3 C 0,0 km/h (0 Bft) 0,00 %
11.09.2015 00:40 8,1 C 89 % 1018,4 hPa 0,0 l/m 0,0 km/h (0 Bft) O-NO 57 0 min 0,000 mm 0,0 UV-I 0 W/m 6,4 C 8,1 C 0,0 km/h (0 Bft) 0,00 %
11.09.2015 00:45 8,0 C 91 % 1018,2 hPa 0,0 l/m 0,4 km/h (0 Bft) O-SO 104 0 min 0,000 mm 0,0 UV-I 0 W/m 6,6 C 8,0 C 4,0 km/h (1 Bft) 0,00 %
11.09.2015 00:50 7,9 C 91 % 1018,4 hPa 0,0 l/m 0,0 km/h (0 Bft) O-SO 107 0 min 0,000 mm 0,0 UV-I 0 W/m 6,5 C 7,9 C 0,0 km/h (0 Bft) 0,00 %
11.09.2015 00:55 8,0 C 91 % 1018,4 hPa 0,0 l/m 0,0 km/h (0 Bft) O 88 0 min 0,000 mm 0,0 UV-I 0 W/m 6,6 C 8,0 C 0,0 km/h (0 Bft) 0,00 %
11.09.2015 01:00 8,2 C 91 % 1018,2 hPa 0,0 l/m 0,0 km/h (0 Bft) O 94 0 min 0,000 mm 0,0 UV-I 0 W/m 6,8 C 8,2 C 0,0 km/h (0 Bft) 0,00 %
11.09.2015 01:05 8,3 C 91 % 1018,2 hPa 0,0 l/m 0,0 km/h (0 Bft) NO 49 0 min 0,000 mm 0,0 UV-I 0 W/m 6,9 C 8,3 C 0,0 km/h (0 Bft) 0,00 %
11.09.2015 01:10 8,3 C 91 % 1018,4 hPa 0,0 l/m 0,0 km/h (0 Bft) NO 35 0 min 0,000 mm 0,0 UV-I 0 W/m 6,9 C 8,3 C 0,0 km/h (0 Bft) 0,00 %
11.09.2015 01:15 8,3 C 91 % 1018,2 hPa 0,0 l/m 0,0 km/h (0 Bft) O-NO 61 0 min 0,000 mm 0,0 UV-I 0 W/m 6,9 C 8,3 C 0,0 km/h (0 Bft) 0,00 %
11.09.2015 01:20 8,2 C 91 % 1018,1 hPa 0,0 l/m 0,0 km/h (0 Bft) NO 38 0 min 0,000 mm 0,0 UV-I 0 W/m 6,8 C 8,2 C 0,0 km/h (0 Bft) 0,00 %
11.09.2015 01:25 8,0 C 92 % 1018,3 hPa 0,0 l/m 0,0 km/h (0 Bft) NO 49 0 min 0,000 mm 0,0 UV-I 0 W/m 6,8 C 8,0 C 0,0 km/h (0 Bft) 0,00 %
11.09.2015 01:30 7,8 C 92 % 1018,2 hPa 0,0 l/m 0,0 km/h (0 Bft) NO 50 0 min 0,000 mm 0,0 UV-I 0 W/m 6,6 C 7,8 C 0,0 km/h (0 Bft) 0,00 %
11.09.2015 01:35 7,6 C 92 % 1018,1 hPa 0,0 l/m 0,0 km/h (0 Bft) NO 48 0 min 0,000 mm 0,0 UV-I 0 W/m 6,4 C 7,6 C 0,0 km/h (0 Bft) 0,00 %
11.09.2015 01:40 7,4 C 92 % 1018,0 hPa 0,0 l/m 0,0 km/h (0 Bft) NO 50 0 min 0,000 mm 0,0 UV-I 0 W/m 6,2 C 7,4 C 0,0 km/h (0 Bft) 0,00 %
11.09.2015 01:45 7,2 C 92 % 1018,0 hPa 0,0 l/m 0,0 km/h (0 Bft) NO 38 0 min 0,000 mm 0,0 UV-I 0 W/m 6,0 C 7,2 C 0,0 km/h (0 Bft) 0,00 %
11.09.2015 01:50 6,9 C 93 % 1018,2 hPa 0,0 l/m 0,0 km/h (0 Bft) NO 47 0 min 0,000 mm 0,0 UV-I 0 W/m 5,8 C 6,9 C 0,0 km/h (0 Bft) 0,00 %
11.09.2015 01:55 6,8 C 93 % 1018,0 hPa 0,0 l/m 0,0 km/h (0 Bft) NO 47 0 min 0,000 mm 0,0 UV-I 0 W/m 5,7 C 6,8 C 0,0 km/h (0 Bft) 0,00 %
11.09.2015 02:00 6,6 C 93 % 1018,1 hPa 0,0 l/m 0,0 km/h (0 Bft) O-NO 58 0 min 0,000 mm 0,0 UV-I 0 W/m 5,6 C 6,6 C 0,0 km/h (0 Bft) 0,00 %
11.09.2015 02:05 6,4 C 93 % 1018,0 hPa 0,0 l/m 0,0 km/h (0 Bft) O-NO 59 0 min 0,000 mm 0,0 UV-I 0 W/m 5,4 C 6,4 C 0,0 km/h (0 Bft) 0,00 %
11.09.2015 02:10 6,3 C 93 % 1018,0 hPa 0,0 l/m 0,0 km/h (0 Bft) NO 50 0 min 0,000 mm 0,0 UV-I 0 W/m 5,3 C 6,3 C 0,0 km/h (0 Bft) 0,00 %
11.09.2015 02:15 6,0 C 95 % 1017,9 hPa 0,0 l/m 0,0 km/h (0 Bft) NO 56 0 min 0,000 mm 0,0 UV-I 0 W/m 5,3 C 6,0 C 0,0 km/h (0 Bft) 0,00 %
11.09.2015 02:20 5,8 C 95 % 1018,1 hPa 0,0 l/m 0,0 km/h (0 Bft) NO 46 0 min 0,000 mm 0,0 UV-I 0 W/m 5,1 C 5,8 C 0,0 km/h (0 Bft) 0,00 %
11.09.2015 02:25 5,8 C 95 % 1018,1 hPa 0,0 l/m 0,0 km/h (0 Bft) NO 52 0 min 0,000 mm 0,0 UV-I 0 W/m 5,1 C 5,8 C 0,0 km/h (0 Bft) 0,00 %
11.09.2015 02:30 5,7 C 95 % 1018,0 hPa 0,0 l/m 0,0 km/h (0 Bft) O-NO 57 0 min 0,000 mm 0,0 UV-I 0 W/m 5,0 C 5,7 C 0,0 km/h (0 Bft) 0,00 %
11.09.2015 02:35 5,6 C 95 % 1018,1 hPa 0,0 l/m 0,0 km/h (0 Bft) NO 50 0 min 0,000 mm 0,0 UV-I 0 W/m 4,9 C 5,6 C 0,0 km/h (0 Bft) 0,00 %
11.09.2015 02:40 5,4 C 96 % 1017,9 hPa 0,0 l/m 0,0 km/h (0 Bft) NO 51 0 min 0,000 mm 0,0 UV-I 0 W/m 4,8 C 5,4 C 0,0 km/h (0 Bft) 0,00 %
11.09.2015 02:45 5,4 C 96 % 1017,9 hPa 0,0 l/m 0,0 km/h (0 Bft) NO 52 0 min 0,000 mm 0,0 UV-I 0 W/m 4,8 C 5,4 C 0,0 km/h (0 Bft) 0,00 %
11.09.2015 02:50 5,4 C 96 % 1017,9 hPa 0,0 l/m 0,0 km/h (0 Bft) NO 52 0 min 0,000 mm 0,0 UV-I 0 W/m 4,8 C 5,4 C 0,0 km/h (0 Bft) 0,00 %
11.09.2015 02:55 5,4 C 97 % 1018,0 hPa 0,0 l/m 0,0 km/h (0 Bft) NO 51 0 min 0,000 mm 0,0 UV-I 0 W/m 5,0 C 5,4 C 0,0 km/h (0 Bft) 0,00 %
11.09.2015 03:01 5,4 C 97 % 1017,9 hPa 0,0 l/m 0,0 km/h (0 Bft) NO 52 0 min 0,000 mm 0,0 UV-I 0 W/m 5,0 C 5,4 C 0,0 km/h (0 Bft) 0,00 %
11.09.2015 03:06 5,3 C 97 % 1017,8 hPa 0,0 l/m 0,0 km/h (0 Bft) NO 52 0 min 0,000 mm 0,0 UV-I 0 W/m 4,9 C 5,3 C 0,0 km/h (0 Bft) 0,00 %
11.09.2015 03:11 5,2 C 97 % 1017,8 hPa 0,0 l/m 0,0 km/h (0 Bft) NO 52 0 min 0,000 mm 0,0 UV-I 0 W/m 4,8 C 5,2 C 0,0 km/h (0 Bft) 0,00 %
11.09.2015 03:16 5,1 C 98 % 1018,0 hPa 0,0 l/m 0,0 km/h (0 Bft) NO 54 0 min 0,000 mm 0,0 UV-I 0 W/m 4,8 C 5,1 C 0,0 km/h (0 Bft) 0,00 %
11.09.2015 03:21 5,0 C 98 % 1018,0 hPa 0,0 l/m 0,0 km/h (0 Bft) NO 54 0 min 0,000 mm 0,0 UV-I 0 W/m 4,7 C 5,0 C 0,0 km/h (0 Bft) 0,00 %
11.09.2015 03:26 5,0 C 98 % 1018,0 hPa 0,0 l/m 0,0 km/h (0 Bft) NO 40 0 min 0,000 mm 0,0 UV-I 0 W/m 4,7 C 5,0 C 0,0 km/h (0 Bft) 0,00 %
11.09.2015 03:31 5,0 C 99 % 1018,1 hPa 0,0 l/m 0,0 km/h (0 Bft) NO 38 0 min 0,000 mm 0,0 UV-I 0 W/m 4,9 C 5,0 C 0,0 km/h (0 Bft) 0,00 %
11.09.2015 03:36 4,9 C 99 % 1017,8 hPa 0,0 l/m 0,0 km/h (0 Bft) NO 42 0 min 0,000 mm 0,0 UV-I 0 W/m 4,8 C 4,9 C 0,0 km/h (0 Bft) 0,00 %
11.09.2015 03:41 4,8 C 99 % 1017,9 hPa 0,0 l/m 0,0 km/h (0 Bft) O-NO 58 0 min 0,000 mm 0,0 UV-I 0 W/m 4,7 C 4,8 C 0,0 km/h (0 Bft) 0,00 %
11.09.2015 03:46 4,8 C 99 % 1017,8 hPa 0,0 l/m 0,0 km/h (0 Bft) NO 52 0 min 0,000 mm 0,0 UV-I 0 W/m 4,7 C 4,8 C 0,0 km/h (0 Bft) 0,00 %
11.09.2015 03:51 4,8 C 98 % 1017,8 hPa 0,0 l/m 0,0 km/h (0 Bft) O-NO 71 0 min 0,000 mm 0,0 UV-I 0 W/m 4,5 C 4,8 C 0,0 km/h (0 Bft) 0,00 %
11.09.2015 03:56 4,9 C 98 % 1017,9 hPa 0,0 l/m 0,0 km/h (0 Bft) O-NO 74 0 min 0,000 mm 0,0 UV-I 0 W/m 4,6 C 4,9 C 0,0 km/h (0 Bft) 0,00 %
11.09.2015 04:01 5,1 C 98 % 1017,8 hPa 0,0 l/m 0,0 km/h (0 Bft) NO 45 0 min 0,000 mm 0,0 UV-I 0 W/m 4,8 C 5,1 C 0,0 km/h (0 Bft) 0,00 %
11.09.2015 04:06 5,2 C 98 % 1017,7 hPa 0,0 l/m 0,0 km/h (0 Bft) NO 53 0 min 0,000 mm 0,0 UV-I 0 W/m 4,9 C 5,2 C 0,0 km/h (0 Bft) 0,00 %
11.09.2015 04:11 5,2 C 98 % 1017,7 hPa 0,0 l/m 0,0 km/h (0 Bft) NO 53 0 min 0,000 mm 0,0 UV-I 0 W/m 4,9 C 5,2 C 0,0 km/h (0 Bft) 0,00 %
11.09.2015 04:16 5,2 C 98 % 1017,7 hPa 0,0 l/m 0,0 km/h (0 Bft) NO 53 0 min 0,000 mm 0,0 UV-I 0 W/m 4,9 C 5,2 C 0,0 km/h (0 Bft) 0,00 %
11.09.2015 04:21 5,2 C 98 % 1017,6 hPa 0,0 l/m 0,0 km/h (0 Bft) NO 53 0 min 0,000 mm 0,0 UV-I 0 W/m 4,9 C 5,2 C 0,0 km/h (0 Bft) 0,00 %
11.09.2015 04:26 5,1 C 98 % 1017,7 hPa 0,0 l/m 0,0 km/h (0 Bft) N-NO 30 0 min 0,000 mm 0,0 UV-I 0 W/m 4,8 C 5,1 C 0,0 km/h (0 Bft) 0,00 %
11.09.2015 04:31 5,0 C 99 % 1017,7 hPa 0,0 l/m 0,0 km/h (0 Bft) NO 38 0 min 0,000 mm 0,0 UV-I 0 W/m 4,9 C 5,0 C 0,0 km/h (0 Bft) 0,00 %
11.09.2015 04:36 4,9 C 99 % 1017,6 hPa 0,0 l/m 0,0 km/h (0 Bft) NO 42 0 min 0,000 mm 0,0 UV-I 0 W/m 4,8 C 4,9 C 0,0 km/h (0 Bft) 0,00 %
11.09.2015 04:41 4,8 C 99 % 1017,4 hPa 0,0 l/m 0,0 km/h (0 Bft) NO 40 0 min 0,000 mm 0,0 UV-I 0 W/m 4,7 C 4,8 C 0,0 km/h (0 Bft) 0,00 %
11.09.2015 04:46 4,8 C 99 % 1017,5 hPa 0,0 l/m 0,0 km/h (0 Bft) NO 44 0 min 0,000 mm 0,0 UV-I 0 W/m 4,7 C 4,8 C 0,0 km/h (0 Bft) 0,00 %
11.09.2015 04:51 4,7 C 99 % 1017,6 hPa 0,0 l/m 0,0 km/h (0 Bft) NO 55 0 min 0,000 mm 0,0 UV-I 0 W/m 4,6 C 4,7 C 0,0 km/h (0 Bft) 0,00 %
11.09.2015 04:56 4,8 C 99 % 1017,7 hPa 0,0 l/m 0,0 km/h (0 Bft) N 353 0 min 0,000 mm 0,0 UV-I 0 W/m 4,7 C 4,8 C 0,0 km/h (0 Bft) 0,00 %
11.09.2015 05:01 4,8 C 99 % 1018,0 hPa 0,0 l/m 0,0 km/h (0 Bft) NO 40 0 min 0,000 mm 0,0 UV-I 0 W/m 4,7 C 4,8 C 0,0 km/h (0 Bft) 0,00 %
11.09.2015 05:06 4,8 C 99 % 1017,9 hPa 0,0 l/m 0,0 km/h (0 Bft) NO 46 0 min 0,000 mm 0,0 UV-I 0 W/m 4,7 C 4,8 C 0,0 km/h (0 Bft) 0,00 %
11.09.2015 05:11 4,7 C 99 % 1017,7 hPa 0,0 l/m 0,0 km/h (0 Bft) NO 52 0 min 0,000 mm 0,0 UV-I 0 W/m 4,6 C 4,7 C 0,0 km/h (0 Bft) 0,00 %
11.09.2015 05:16 4,7 C 99 % 1017,8 hPa 0,0 l/m 0,0 km/h (0 Bft) O-NO 57 0 min 0,000 mm 0,0 UV-I 0 W/m 4,6 C 4,7 C 0,0 km/h (0 Bft) 0,00 %
11.09.2015 05:21 4,7 C 99 % 1017,9 hPa 0,0 l/m 0,0 km/h (0 Bft) NO 42 0 min 0,000 mm 0,0 UV-I 0 W/m 4,6 C 4,7 C 0,0 km/h (0 Bft) 0,00 %
11.09.2015 05:26 4,7 C 99 % 1017,6 hPa 0,0 l/m 0,0 km/h (0 Bft) O-NO 60 0 min 0,000 mm 0,0 UV-I 0 W/m 4,6 C 4,7 C 0,0 km/h (0 Bft) 0,00 %
11.09.2015 05:31 4,7 C 98 % 1017,7 hPa 0,0 l/m 0,0 km/h (0 Bft) O-NO 59 0 min 0,000 mm 0,0 UV-I 0 W/m 4,4 C 4,7 C 0,0 km/h (0 Bft) 0,00 %
11.09.2015 05:36 4,9 C 98 % 1017,6 hPa 0,0 l/m 0,0 km/h (0 Bft) NO 56 0 min 0,000 mm 0,0 UV-I 0 W/m 4,6 C 4,9 C 0,0 km/h (0 Bft) 0,00 %
11.09.2015 05:41 5,0 C 98 % 1018,0 hPa 0,0 l/m 0,0 km/h (0 Bft) NO 54 0 min 0,000 mm 0,0 UV-I 0 W/m 4,7 C 5,0 C 0,0 km/h (0 Bft) 0,00 %
11.09.2015 05:46 5,1 C 98 % 1017,9 hPa 0,0 l/m 0,0 km/h (0 Bft) NO 46 0 min 0,000 mm 0,0 UV-I 0 W/m 4,8 C 5,1 C 0,0 km/h (0 Bft) 0,00 %
11.09.2015 05:51 5,1 C 98 % 1017,9 hPa 0,0 l/m 0,0 km/h (0 Bft) NO 52 0 min 0,000 mm 0,0 UV-I 0 W/m 4,8 C 5,1 C 0,0 km/h (0 Bft) 0,00 %
11.09.2015 05:56 5,0 C 99 % 1017,8 hPa 0,0 l/m 0,0 km/h (0 Bft) NO 53 0 min 0,000 mm 0,0 UV-I 0 W/m 4,9 C 5,0 C 0,0 km/h (0 Bft) 0,00 %
11.09.2015 06:01 4,9 C 99 % 1017,9 hPa 0,0 l/m 0,0 km/h (0 Bft) NO 40 0 min 0,000 mm 0,0 UV-I 0 W/m 4,8 C 4,9 C 0,0 km/h (0 Bft) 0,00 %
11.09.2015 06:06 4,8 C 99 % 1017,9 hPa 0,0 l/m 0,0 km/h (0 Bft) NO 41 0 min 0,000 mm 0,0 UV-I 0 W/m 4,7 C 4,8 C 0,0 km/h (0 Bft) 0,00 %
11.09.2015 06:11 4,8 C 99 % 1017,9 hPa 0,0 l/m 0,0 km/h (0 Bft) N-NO 29 0 min 0,000 mm 0,0 UV-I 0 W/m 4,7 C 4,8 C 0,0 km/h (0 Bft) 0,00 %
11.09.2015 06:16 4,7 C 99 % 1018,1 hPa 0,0 l/m 0,0 km/h (0 Bft) N 358 0 min 0,000 mm 0,0 UV-I 0 W/m 4,6 C 4,7 C 0,0 km/h (0 Bft) 0,00 %
11.09.2015 06:21 4,7 C 99 % 1018,1 hPa 0,0 l/m 0,0 km/h (0 Bft) NO 54 0 min 0,000 mm 0,0 UV-I 0 W/m 4,6 C 4,7 C 0,0 km/h (0 Bft) 0,00 %
11.09.2015 06:26 4,7 C 99 % 1018,0 hPa 0,0 l/m 0,0 km/h (0 Bft) NO 54 0 min 0,000 mm 0,0 UV-I 0 W/m 4,6 C 4,7 C 0,0 km/h (0 Bft) 0,00 %
11.09.2015 06:31 4,7 C 99 % 1018,1 hPa 0,0 l/m 0,0 km/h (0 Bft) O 79 0 min 0,000 mm 0,0 UV-I 0 W/m 4,6 C 4,7 C 0,0 km/h (0 Bft) 0,00 %
11.09.2015 06:36 4,7 C 99 % 1018,2 hPa 0,0 l/m 0,0 km/h (0 Bft) O 79 0 min 0,000 mm 0,0 UV-I 0 W/m 4,6 C 4,7 C 0,0 km/h (0 Bft) 0,00 %
11.09.2015 06:41 4,7 C 99 % 1018,3 hPa 0,0 l/m 0,0 km/h (0 Bft) N-NO 28 0 min 0,000 mm 0,0 UV-I 4 W/m 4,6 C 4,7 C 0,0 km/h (0 Bft) 0,00 %
11.09.2015 06:46 4,8 C 99 % 1018,2 hPa 0,0 l/m 0,0 km/h (0 Bft) NO 50 5 min 0,000 mm 0,0 UV-I 11 W/m 4,7 C 4,8 C 0,0 km/h (0 Bft) 0,00 %
11.09.2015 06:51 4,7 C 99 % 1018,3 hPa 0,0 l/m 0,0 km/h (0 Bft) NO 50 5 min 0,000 mm 0,0 UV-I 22 W/m 4,6 C 4,7 C 0,0 km/h (0 Bft) 0,00 %
11.09.2015 06:56 4,7 C 99 % 1018,3 hPa 0,0 l/m 0,0 km/h (0 Bft) NO 50 5 min 0,000 mm 0,0 UV-I 31 W/m 4,6 C 4,7 C 0,0 km/h (0 Bft) 0,00 %
11.09.2015 07:01 4,9 C 98 % 1018,2 hPa 0,0 l/m 0,0 km/h (0 Bft) NO 53 5 min 0,000 mm 0,0 UV-I 42 W/m 4,6 C 4,9 C 0,0 km/h (0 Bft) 0,00 %
11.09.2015 07:06 5,2 C 98 % 1018,1 hPa 0,0 l/m 0,0 km/h (0 Bft) NO 53 5 min 0,000 mm 0,0 UV-I 58 W/m 4,9 C 5,2 C 0,0 km/h (0 Bft) 0,00 %
11.09.2015 07:11 5,7 C 97 % 1018,1 hPa 0,0 l/m 0,0 km/h (0 Bft) O-NO 68 5 min 0,000 mm 0,0 UV-I 62 W/m 5,3 C 5,7 C 0,0 km/h (0 Bft) 0,00 %
11.09.2015 07:16 6,1 C 97 % 1018,2 hPa 0,0 l/m 0,0 km/h (0 Bft) N-NO 29 5 min 0,000 mm 0,0 UV-I 63 W/m 5,7 C 6,1 C 0,0 km/h (0 Bft) 0,00 %
11.09.2015 07:21 6,5 C 97 % 1018,5 hPa 0,0 l/m 0,0 km/h (0 Bft) O 91 5 min 0,000 mm 0,0 UV-I 66 W/m 6,1 C 6,5 C 0,0 km/h (0 Bft) 0,00 %
11.09.2015 07:26 6,8 C 99 % 1018,5 hPa 0,0 l/m 0,0 km/h (0 Bft) NO 56 0 min 0,000 mm 0,0 UV-I 70 W/m 6,7 C 6,8 C 0,0 km/h (0 Bft) 0,00 %
11.09.2015 07:31 7,3 C 99 % 1018,5 hPa 0,0 l/m 0,0 km/h (0 Bft) O 98 0 min 0,000 mm 0,0 UV-I 81 W/m 7,2 C 7,3 C 0,0 km/h (0 Bft) 0,00 %
11.09.2015 07:36 7,7 C 99 % 1018,3 hPa 0,0 l/m 1,4 km/h (1 Bft) S 173 0 min 0,000 mm 0,0 UV-I 88 W/m 7,6 C 7,7 C 4,0 km/h (1 Bft) 0,00 %
11.09.2015 07:41 8,1 C 99 % 1018,3 hPa 0,0 l/m 6,5 km/h (2 Bft) O-SO 102 0 min 0,000 mm 0,0 UV-I 93 W/m 8,0 C 8,0 C 11,9 km/h (2 Bft) 0,00 %
11.09.2015 07:46 8,4 C 99 % 1018,3 hPa 0,0 l/m 0,0 km/h (0 Bft) N 354 0 min 0,000 mm 0,0 UV-I 89 W/m 8,3 C 8,4 C 0,0 km/h (0 Bft) 0,00 %
11.09.2015 07:51 8,6 C 99 % 1018,1 hPa 0,0 l/m 6,8 km/h (2 Bft) O 101 0 min 0,000 mm 0,0 UV-I 110 W/m 8,5 C 8,3 C 11,9 km/h (2 Bft) 0,00 %
11.09.2015 07:56 8,7 C 99 % 1018,4 hPa 0,0 l/m 6,5 km/h (2 Bft) O-NO 73 5 min 0,000 mm 0,0 UV-I 124 W/m 8,6 C 8,6 C 7,9 km/h (2 Bft) 0,00 %
11.09.2015 08:01 8,9 C 99 % 1018,4 hPa 0,0 l/m 11,5 km/h (2 Bft) O 92 5 min 0,000 mm 1,0 UV-I 138 W/m 8,8 C 5,5 C 15,8 km/h (3 Bft) 0,00 %
11.09.2015 08:06 9,0 C 99 % 1018,6 hPa 0,0 l/m 0,7 km/h (0 Bft) NO 48 5 min 0,000 mm 0,0 UV-I 148 W/m 8,9 C 9,0 C 4,0 km/h (1 Bft) 0,00 %
11.09.2015 08:11 9,1 C 99 % 1018,6 hPa 0,0 l/m 2,2 km/h (1 Bft) O 100 0 min 0,000 mm 0,0 UV-I 120 W/m 9,0 C 9,1 C 7,9 km/h (2 Bft) 0,00 %
11.09.2015 08:16 9,2 C 99 % 1018,8 hPa 0,0 l/m 2,2 km/h (1 Bft) S 181 0 min 0,000 mm 0,0 UV-I 117 W/m 9,1 C 9,2 C 4,0 km/h (1 Bft) 0,00 %
11.09.2015 08:21 9,3 C 98 % 1018,7 hPa 0,0 l/m 0,4 km/h (0 Bft) O-NO 74 0 min 0,000 mm 1,0 UV-I 135 W/m 9,0 C 9,3 C 4,0 km/h (1 Bft) 0,00 %
11.09.2015 08:26 9,4 C 97 % 1018,8 hPa 0,0 l/m 0,4 km/h (0 Bft) NO 36 0 min 0,000 mm 1,0 UV-I 122 W/m 8,9 C 9,4 C 4,0 km/h (1 Bft) 0,00 %
11.09.2015 08:31 9,6 C 96 % 1018,7 hPa 0,0 l/m 0,4 km/h (0 Bft) O 81 0 min 0,000 mm 1,0 UV-I 116 W/m 9,0 C 9,6 C 4,0 km/h (1 Bft) 0,00 %
11.09.2015 08:36 9,6 C 95 % 1018,5 hPa 0,0 l/m 3,2 km/h (1 Bft) NO 40 5 min 0,000 mm 1,0 UV-I 183 W/m 8,8 C 9,6 C 7,9 km/h (2 Bft) 0,00 %
11.09.2015 08:41 9,7 C 93 % 1018,6 hPa 0,0 l/m 0,4 km/h (0 Bft) SO 125 5 min 0,000 mm 1,0 UV-I 189 W/m 8,6 C 9,7 C 4,0 km/h (1 Bft) 0,00 %
11.09.2015 08:46 9,9 C 92 % 1018,5 hPa 0,0 l/m 7,9 km/h (2 Bft) N-NO 23 0 min 0,000 mm 1,0 UV-I 184 W/m 8,7 C 8,8 C 11,9 km/h (2 Bft) 0,00 %
11.09.2015 08:51 10,1 C 91 % 1018,4 hPa 0,0 l/m 2,9 km/h (1 Bft) SO 125 5 min 0,000 mm 1,0 UV-I 206 W/m 8,7 C 10,1 C 7,9 km/h (2 Bft) 0,00 %
11.09.2015 08:56 10,2 C 89 % 1018,6 hPa 0,0 l/m 10,4 km/h (2 Bft) SO 143 0 min 0,000 mm 1,0 UV-I 172 W/m 8,5 C 7,6 C 19,8 km/h (3 Bft) 0,00 %
11.09.2015 09:01 10,3 C 89 % 1018,6 hPa 0,0 l/m 1,4 km/h (1 Bft) O-NO 60 0 min 0,000 mm 1,0 UV-I 177 W/m 8,6 C 10,3 C 4,0 km/h (1 Bft) 0,00 %
11.09.2015 09:06 10,4 C 88 % 1018,6 hPa 0,0 l/m 0,7 km/h (0 Bft) O-NO 62 0 min 0,000 mm 1,0 UV-I 169 W/m 8,5 C 10,4 C 4,0 km/h (1 Bft) 0,00 %
11.09.2015 09:11 10,4 C 87 % 1018,8 hPa 0,0 l/m 2,2 km/h (1 Bft) O-SO 121 0 min 0,000 mm 1,0 UV-I 152 W/m 8,3 C 10,4 C 4,0 km/h (1 Bft) 0,00 %
11.09.2015 09:16 10,4 C 87 % 1018,8 hPa 0,0 l/m 0,7 km/h (0 Bft) S 188 0 min 0,000 mm 1,0 UV-I 148 W/m 8,3 C 10,4 C 4,0 km/h (1 Bft) 0,00 %
11.09.2015 09:21 10,5 C 86 % 1018,7 hPa 0,0 l/m 0,0 km/h (0 Bft) SO 134 0 min 0,000 mm 1,0 UV-I 164 W/m 8,3 C 10,5 C 0,0 km/h (0 Bft) 0,00 %
11.09.2015 09:26 10,5 C 87 % 1018,7 hPa 0,0 l/m 0,7 km/h (0 Bft) O 100 0 min 0,000 mm 1,0 UV-I 179 W/m 8,4 C 10,5 C 4,0 km/h (1 Bft) 0,00 %
11.09.2015 09:31 10,7 C 85 % 1018,7 hPa 0,0 l/m 0,0 km/h (0 Bft) O-SO 102 0 min 0,000 mm 1,0 UV-I 178 W/m 8,3 C 10,7 C 0,0 km/h (0 Bft) 0,00 %
11.09.2015 09:36 10,9 C 84 % 1019,0 hPa 0,0 l/m 4,7 km/h (1 Bft) S-SO 152 0 min 0,000 mm 1,0 UV-I 201 W/m 8,3 C 10,9 C 7,9 km/h (2 Bft) 0,00 %
11.09.2015 09:41 11,1 C 83 % 1018,9 hPa 0,0 l/m 2,2 km/h (1 Bft) O-SO 116 0 min 0,000 mm 1,0 UV-I 204 W/m 8,3 C 11,1 C 4,0 km/h (1 Bft) 0,00 %
11.09.2015 09:46 11,4 C 82 % 1018,8 hPa 0,0 l/m 0,4 km/h (0 Bft) O-NO 78 0 min 0,000 mm 1,0 UV-I 202 W/m 8,4 C 11,4 C 4,0 km/h (1 Bft) 0,00 %
11.09.2015 09:51 11,6 C 81 % 1018,6 hPa 0,0 l/m 1,4 km/h (1 Bft) N-NO 14 0 min 0,000 mm 1,0 UV-I 214 W/m 8,5 C 11,6 C 4,0 km/h (1 Bft) 0,00 %
11.09.2015 09:56 11,8 C 81 % 1018,7 hPa 0,0 l/m 2,2 km/h (1 Bft) O-SO 107 0 min 0,000 mm 1,0 UV-I 223 W/m 8,6 C 11,8 C 7,9 km/h (2 Bft) 0,00 %
11.09.2015 10:01 11,8 C 82 % 1018,7 hPa 0,0 l/m 0,0 km/h (0 Bft) NO 50 0 min 0,000 mm 1,0 UV-I 226 W/m 8,8 C 11,8 C 0,0 km/h (0 Bft) 0,00 %
11.09.2015 10:06 11,9 C 82 % 1018,7 hPa 0,0 l/m 0,0 km/h (0 Bft) NO 42 0 min 0,000 mm 1,0 UV-I 233 W/m 8,9 C 11,9 C 0,0 km/h (0 Bft) 0,00 %
11.09.2015 10:11 12,2 C 81 % 1018,7 hPa 0,0 l/m 2,9 km/h (1 Bft) O 90 0 min 0,000 mm 1,0 UV-I 243 W/m 9,0 C 12,2 C 4,0 km/h (1 Bft) 0,00 %
11.09.2015 10:16 12,5 C 79 % 1018,8 hPa 0,0 l/m 0,0 km/h (0 Bft) NO 53 0 min 0,000 mm 1,0 UV-I 255 W/m 9,0 C 12,5 C 0,0 km/h (0 Bft) 0,00 %
11.09.2015 10:21 12,6 C 79 % 1018,9 hPa 0,0 l/m 4,0 km/h (1 Bft) SO 135 0 min 0,000 mm 1,0 UV-I 274 W/m 9,1 C 12,6 C 7,9 km/h (2 Bft) 0,00 %
11.09.2015 10:26 12,8 C 77 % 1018,7 hPa 0,0 l/m 4,0 km/h (1 Bft) O 85 0 min 0,000 mm 1,0 UV-I 292 W/m 8,9 C 12,8 C 7,9 km/h (2 Bft) 0,00 %
11.09.2015 10:31 13,1 C 76 % 1018,7 hPa 0,0 l/m 2,9 km/h (1 Bft) O 93 0 min 0,000 mm 1,0 UV-I 279 W/m 9,0 C 13,1 C 7,9 km/h (2 Bft) 0,00 %
11.09.2015 10:36 13,2 C 75 % 1019,0 hPa 0,0 l/m 0,0 km/h (0 Bft) O 93 0 min 0,000 mm 1,0 UV-I 278 W/m 8,9 C 13,2 C 0,0 km/h (0 Bft) 0,00 %
11.09.2015 10:41 13,3 C 75 % 1019,0 hPa 0,0 l/m 0,7 km/h (0 Bft) NO 35 0 min 0,000 mm 1,0 UV-I 277 W/m 9,0 C 13,3 C 4,0 km/h (1 Bft) 0,00 %
11.09.2015 10:46 13,3 C 75 % 1018,9 hPa 0,0 l/m 0,0 km/h (0 Bft) O 89 0 min 0,000 mm 1,0 UV-I 283 W/m 9,0 C 13,3 C 0,0 km/h (0 Bft) 0,00 %
11.09.2015 10:51 13,6 C 74 % 1019,1 hPa 0,0 l/m 0,0 km/h (0 Bft) NO 35 0 min 0,000 mm 1,0 UV-I 317 W/m 9,1 C 13,6 C 0,0 km/h (0 Bft) 0,00 %
11.09.2015 10:56 13,9 C 72 % 1018,9 hPa 0,0 l/m 4,7 km/h (1 Bft) O-SO 104 0 min 0,000 mm 1,0 UV-I 311 W/m 8,9 C 13,9 C 7,9 km/h (2 Bft) 0,00 %
11.09.2015 11:01 14,2 C 71 % 1018,8 hPa 0,0 l/m 6,8 km/h (2 Bft) O-SO 108 0 min 0,000 mm 1,0 UV-I 273 W/m 9,0 C 14,0 C 7,9 km/h (2 Bft) 0,00 %
11.09.2015 11:06 14,2 C 72 % 1018,8 hPa 0,0 l/m 1,4 km/h (1 Bft) O-SO 114 0 min 0,000 mm 1,0 UV-I 277 W/m 9,2 C 14,2 C 4,0 km/h (1 Bft) 0,00 %
11.09.2015 11:11 14,2 C 72 % 1018,7 hPa 0,0 l/m 0,7 km/h (0 Bft) O-SO 105 0 min 0,000 mm 1,0 UV-I 277 W/m 9,2 C 14,2 C 4,0 km/h (1 Bft) 0,00 %
11.09.2015 11:16 14,2 C 71 % 1018,7 hPa 0,0 l/m 4,0 km/h (1 Bft) O-SO 109 0 min 0,000 mm 1,0 UV-I 273 W/m 9,0 C 14,2 C 7,9 km/h (2 Bft) 0,00 %
11.09.2015 11:21 14,3 C 70 % 1018,6 hPa 0,0 l/m 2,9 km/h (1 Bft) S 189 0 min 0,000 mm 1,0 UV-I 282 W/m 8,9 C 14,3 C 4,0 km/h (1 Bft) 0,00 %
11.09.2015 11:26 14,4 C 70 % 1018,5 hPa 0,0 l/m 3,2 km/h (1 Bft) S 173 0 min 0,000 mm 1,0 UV-I 324 W/m 9,0 C 14,4 C 7,9 km/h (2 Bft) 0,00 %
11.09.2015 11:31 14,7 C 69 % 1018,6 hPa 0,0 l/m 4,3 km/h (1 Bft) O-SO 121 0 min 0,000 mm 2,0 UV-I 327 W/m 9,1 C 14,7 C 7,9 km/h (2 Bft) 0,00 %
11.09.2015 11:36 15,0 C 67 % 1018,5 hPa 0,0 l/m 1,4 km/h (1 Bft) O 88 5 min 0,000 mm 2,0 UV-I 470 W/m 8,9 C 15,0 C 4,0 km/h (1 Bft) 0,00 %
11.09.2015 11:41 15,4 C 64 % 1018,9 hPa 0,0 l/m 5,8 km/h (2 Bft) O-SO 120 5 min 0,000 mm 2,0 UV-I 513 W/m 8,6 C 15,4 C 7,9 km/h (2 Bft) 0,00 %
11.09.2015 11:46 16,0 C 62 % 1018,8 hPa 0,0 l/m 7,2 km/h (2 Bft) O 99 5 min 0,000 mm 3,0 UV-I 686 W/m 8,7 C 15,6 C 7,9 km/h (2 Bft) 0,00 %
11.09.2015 11:51 16,6 C 60 % 1018,9 hPa 0,0 l/m 2,9 km/h (1 Bft) O 88 5 min 0,000 mm 3,0 UV-I 670 W/m 8,8 C 16,6 C 4,0 km/h (1 Bft) 0,00 %
11.09.2015 11:56 17,5 C 58 % 1018,9 hPa 0,0 l/m 0,7 km/h (0 Bft) O-NO 75 5 min 0,000 mm 3,0 UV-I 662 W/m 9,1 C 17,5 C 4,0 km/h (1 Bft) 0,00 %
11.09.2015 12:01 17,9 C 56 % 1018,8 hPa 0,0 l/m 0,7 km/h (0 Bft) O-SO 116 5 min 0,000 mm 3,0 UV-I 654 W/m 9,0 C 17,9 C 4,0 km/h (1 Bft) 0,00 %
11.09.2015 12:06 18,2 C 54 % 1018,9 hPa 0,0 l/m 0,0 km/h (0 Bft) NO 56 5 min 0,000 mm 3,0 UV-I 677 W/m 8,7 C 18,2 C 0,0 km/h (0 Bft) 0,00 %
11.09.2015 12:11 18,3 C 54 % 1018,9 hPa 0,0 l/m 1,4 km/h (1 Bft) S 179 5 min 0,000 mm 2,0 UV-I 584 W/m 8,8 C 18,3 C 4,0 km/h (1 Bft) 0,00 %
11.09.2015 12:16 18,1 C 54 % 1018,7 hPa 0,0 l/m 4,7 km/h (1 Bft) O 87 0 min 0,000 mm 2,0 UV-I 331 W/m 8,6 C 18,1 C 7,9 km/h (2 Bft) 0,00 %
11.09.2015 12:21 17,8 C 55 % 1018,8 hPa 0,0 l/m 0,0 km/h (0 Bft) NO 52 5 min 0,000 mm 2,0 UV-I 532 W/m 8,6 C 17,8 C 0,0 km/h (0 Bft) 0,00 %
11.09.2015 12:26 17,6 C 56 % 1019,0 hPa 0,0 l/m 0,0 km/h (0 Bft) O 82 5 min 0,000 mm 2,0 UV-I 493 W/m 8,7 C 17,6 C 0,0 km/h (0 Bft) 0,00 %
11.09.2015 12:31 17,6 C 57 % 1018,7 hPa 0,0 l/m 6,8 km/h (2 Bft) O-SO 104 5 min 0,000 mm 2,0 UV-I 602 W/m 9,0 C 17,4 C 7,9 km/h (2 Bft) 0,00 %
11.09.2015 12:36 17,6 C 56 % 1018,8 hPa 0,0 l/m 0,7 km/h (0 Bft) O 88 5 min 0,000 mm 3,0 UV-I 672 W/m 8,7 C 17,6 C 4,0 km/h (1 Bft) 0,00 %
11.09.2015 12:41 17,9 C 55 % 1018,7 hPa 0,0 l/m 0,0 km/h (0 Bft) SO 133 5 min 0,000 mm 3,0 UV-I 670 W/m 8,7 C 17,9 C 0,0 km/h (0 Bft) 0,00 %
11.09.2015 12:46 18,2 C 52 % 1018,7 hPa 0,0 l/m 1,8 km/h (1 Bft) O-SO 103 5 min 0,000 mm 3,0 UV-I 678 W/m 8,2 C 18,2 C 4,0 km/h (1 Bft) 0,00 %
11.09.2015 12:51 18,5 C 52 % 1018,7 hPa 0,0 l/m 0,0 km/h (0 Bft) O-NO 73 5 min 0,000 mm 3,0 UV-I 687 W/m 8,5 C 18,5 C 0,0 km/h (0 Bft) 0,00 %
11.09.2015 12:56 18,6 C 52 % 1018,7 hPa 0,0 l/m 1,4 km/h (1 Bft) SO 130 5 min 0,000 mm 3,0 UV-I 680 W/m 8,5 C 18,6 C 4,0 km/h (1 Bft) 0,00 %
11.09.2015 13:01 18,8 C 50 % 1018,6 hPa 0,0 l/m 0,0 km/h (0 Bft) O-NO 59 5 min 0,000 mm 3,0 UV-I 696 W/m 8,2 C 18,8 C 0,0 km/h (0 Bft) 0,00 %
11.09.2015 13:06 18,9 C 49 % 1018,9 hPa 0,0 l/m 0,7 km/h (0 Bft) O-NO 67 5 min 0,000 mm 3,0 UV-I 702 W/m 7,9 C 18,9 C 4,0 km/h (1 Bft) 0,00 %
11.09.2015 13:11 19,0 C 47 % 1018,6 hPa 0,0 l/m 0,0 km/h (0 Bft) NO 51 5 min 0,000 mm 3,0 UV-I 701 W/m 7,4 C 19,0 C 0,0 km/h (0 Bft) 0,00 %
11.09.2015 13:16 19,1 C 46 % 1018,5 hPa 0,0 l/m 0,4 km/h (0 Bft) NO 50 5 min 0,000 mm 3,0 UV-I 705 W/m 7,2 C 19,1 C 4,0 km/h (1 Bft) 0,00 %
11.09.2015 13:21 19,2 C 46 % 1018,7 hPa 0,0 l/m 1,8 km/h (1 Bft) NW 320 5 min 0,000 mm 3,0 UV-I 711 W/m 7,3 C 19,2 C 4,0 km/h (1 Bft) 0,00 %
11.09.2015 13:26 19,3 C 43 % 1018,6 hPa 0,0 l/m 0,0 km/h (0 Bft) NO 44 5 min 0,000 mm 3,0 UV-I 712 W/m 6,4 C 19,3 C 0,0 km/h (0 Bft) 0,00 %
11.09.2015 13:31 19,4 C 49 % 1018,7 hPa 0,0 l/m 0,0 km/h (0 Bft) O-NO 58 5 min 0,000 mm 3,0 UV-I 704 W/m 8,4 C 19,4 C 0,0 km/h (0 Bft) 0,00 %
11.09.2015 13:36 19,6 C 43 % 1018,7 hPa 0,0 l/m 4,7 km/h (1 Bft) O-SO 121 5 min 0,000 mm 3,0 UV-I 715 W/m 6,7 C 19,6 C 7,9 km/h (2 Bft) 0,00 %
11.09.2015 13:41 19,7 C 44 % 1018,7 hPa 0,0 l/m 0,0 km/h (0 Bft) O-NO 61 5 min 0,000 mm 3,0 UV-I 718 W/m 7,1 C 19,7 C 0,0 km/h (0 Bft) 0,00 %
11.09.2015 13:46 19,8 C 45 % 1018,5 hPa 0,0 l/m 2,9 km/h (1 Bft) NO 49 5 min 0,000 mm 3,0 UV-I 720 W/m 7,5 C 19,8 C 4,0 km/h (1 Bft) 0,00 %
11.09.2015 13:51 19,9 C 45 % 1018,3 hPa 0,0 l/m 0,4 km/h (0 Bft) N 352 5 min 0,000 mm 3,0 UV-I 728 W/m 7,6 C 19,9 C 4,0 km/h (1 Bft) 0,00 %
11.09.2015 13:56 19,9 C 44 % 1018,5 hPa 0,0 l/m 0,7 km/h (0 Bft) N-NO 29 5 min 0,000 mm 3,0 UV-I 718 W/m 7,3 C 19,9 C 4,0 km/h (1 Bft) 0,00 %
11.09.2015 14:01 19,9 C 43 % 1018,4 hPa 0,0 l/m 0,4 km/h (0 Bft) N-NO 31 5 min 0,000 mm 2,0 UV-I 723 W/m 6,9 C 19,9 C 4,0 km/h (1 Bft) 0,00 %
11.09.2015 14:06 20,0 C 42 % 1018,5 hPa 0,0 l/m 0,0 km/h (0 Bft) O-NO 64 5 min 0,000 mm 2,0 UV-I 731 W/m 6,7 C 20,0 C 0,0 km/h (0 Bft) 0,00 %
11.09.2015 14:11 20,2 C 41 % 1018,6 hPa 0,0 l/m 0,0 km/h (0 Bft) O 82 5 min 0,000 mm 2,0 UV-I 728 W/m 6,5 C 20,2 C 0,0 km/h (0 Bft) 0,00 %
11.09.2015 14:16 20,4 C 42 % 1018,5 hPa 0,0 l/m 0,7 km/h (0 Bft) N-NW 342 5 min 0,000 mm 2,0 UV-I 738 W/m 7,1 C 20,4 C 4,0 km/h (1 Bft) 0,00 %
11.09.2015 14:21 20,5 C 42 % 1018,5 hPa 0,0 l/m 2,2 km/h (1 Bft) N 353 5 min 0,000 mm 2,0 UV-I 738 W/m 7,1 C 20,5 C 4,0 km/h (1 Bft) 0,00 %
11.09.2015 14:26 20,5 C 42 % 1018,5 hPa 0,0 l/m 2,2 km/h (1 Bft) O 93 5 min 0,000 mm 2,0 UV-I 738 W/m 7,1 C 20,5 C 4,0 km/h (1 Bft) 0,00 %
11.09.2015 14:31 20,4 C 42 % 1018,5 hPa 0,0 l/m 4,7 km/h (1 Bft) O-SO 112 5 min 0,000 mm 2,0 UV-I 735 W/m 7,1 C 20,4 C 7,9 km/h (2 Bft) 0,00 %
11.09.2015 14:36 20,3 C 42 % 1018,5 hPa 0,0 l/m 0,4 km/h (0 Bft) O 101 5 min 0,000 mm 1,0 UV-I 752 W/m 7,0 C 20,3 C 4,0 km/h (1 Bft) 0,00 %
11.09.2015 14:41 20,1 C 44 % 1018,5 hPa 0,0 l/m 0,0 km/h (0 Bft) O-NO 61 5 min 0,000 mm 1,0 UV-I 747 W/m 7,5 C 20,1 C 0,0 km/h (0 Bft) 0,00 %
11.09.2015 14:46 19,8 C 44 % 1018,5 hPa 0,0 l/m 0,0 km/h (0 Bft) O-NO 67 5 min 0,000 mm 1,0 UV-I 740 W/m 7,2 C 19,8 C 0,0 km/h (0 Bft) 0,00 %
11.09.2015 14:51 19,7 C 44 % 1018,3 hPa 0,0 l/m 0,0 km/h (0 Bft) NO 50 5 min 0,000 mm 1,0 UV-I 732 W/m 7,1 C 19,7 C 0,0 km/h (0 Bft) 0,00 %
11.09.2015 14:56 19,7 C 45 % 1018,3 hPa 0,0 l/m 4,0 km/h (1 Bft) O 101 5 min 0,000 mm 1,0 UV-I 732 W/m 7,4 C 19,7 C 4,0 km/h (1 Bft) 0,00 %
11.09.2015 15:01 19,7 C 46 % 1018,2 hPa 0,0 l/m 0,0 km/h (0 Bft) O-NO 77 5 min 0,000 mm 1,0 UV-I 730 W/m 7,8 C 19,7 C 0,0 km/h (0 Bft) 0,00 %
11.09.2015 15:06 19,7 C 44 % 1018,2 hPa 0,0 l/m 0,4 km/h (0 Bft) N-NO 12 5 min 0,000 mm 1,0 UV-I 733 W/m 7,1 C 19,7 C 4,0 km/h (1 Bft) 0,00 %
11.09.2015 15:11 19,7 C 43 % 1018,2 hPa 0,0 l/m 0,7 km/h (0 Bft) O-SO 116 5 min 0,000 mm 1,0 UV-I 730 W/m 6,8 C 19,7 C 4,0 km/h (1 Bft) 0,00 %
11.09.2015 15:16 19,7 C 43 % 1018,2 hPa 0,0 l/m 0,0 km/h (0 Bft) N-NW 347 5 min 0,000 mm 1,0 UV-I 725 W/m 6,8 C 19,7 C 0,0 km/h (0 Bft) 0,00 %
11.09.2015 15:21 19,8 C 45 % 1018,1 hPa 0,0 l/m 0,0 km/h (0 Bft) NO 37 5 min 0,000 mm 1,0 UV-I 725 W/m 7,5 C 19,8 C 0,0 km/h (0 Bft) 0,00 %
11.09.2015 15:26 19,8 C 42 % 1018,1 hPa 0,0 l/m 1,4 km/h (1 Bft) SO 135 5 min 0,000 mm 1,0 UV-I 720 W/m 6,5 C 19,8 C 4,0 km/h (1 Bft) 0,00 %
11.09.2015 15:31 19,9 C 41 % 1018,3 hPa 0,0 l/m 3,2 km/h (1 Bft) NW 309 5 min 0,000 mm 1,0 UV-I 720 W/m 6,3 C 19,9 C 4,0 km/h (1 Bft) 0,00 %
11.09.2015 15:36 19,9 C 41 % 1018,1 hPa 0,0 l/m 3,2 km/h (1 Bft) O-NO 67 5 min 0,000 mm 1,0 UV-I 715 W/m 6,3 C 19,9 C 7,9 km/h (2 Bft) 0,00 %
11.09.2015 15:41 19,9 C 42 % 1018,0 hPa 0,0 l/m 0,4 km/h (0 Bft) O-SO 110 5 min 0,000 mm 1,0 UV-I 715 W/m 6,6 C 19,9 C 4,0 km/h (1 Bft) 0,00 %
11.09.2015 15:46 19,8 C 42 % 1018,0 hPa 0,0 l/m 0,0 km/h (0 Bft) NO 36 5 min 0,000 mm 1,0 UV-I 710 W/m 6,5 C 19,8 C 0,0 km/h (0 Bft) 0,00 %
11.09.2015 15:51 19,8 C 43 % 1018,0 hPa 0,0 l/m 0,0 km/h (0 Bft) NO 49 5 min 0,000 mm 1,0 UV-I 710 W/m 6,9 C 19,8 C 0,0 km/h (0 Bft) 0,00 %
11.09.2015 15:56 19,8 C 43 % 1017,9 hPa 0,0 l/m 0,0 km/h (0 Bft) W-NW 297 5 min 0,000 mm 1,0 UV-I 705 W/m 6,9 C 19,8 C 0,0 km/h (0 Bft) 0,00 %
11.09.2015 16:01 19,9 C 44 % 1017,9 hPa 0,0 l/m 0,7 km/h (0 Bft) O-NO 64 5 min 0,000 mm 1,0 UV-I 705 W/m 7,3 C 19,9 C 4,0 km/h (1 Bft) 0,00 %
11.09.2015 16:06 20,0 C 44 % 1018,0 hPa 0,0 l/m 2,9 km/h (1 Bft) N 354 5 min 0,000 mm 1,0 UV-I 700 W/m 7,4 C 20,0 C 4,0 km/h (1 Bft) 0,00 %
11.09.2015 16:11 20,1 C 43 % 1017,9 hPa 0,0 l/m 2,2 km/h (1 Bft) O 89 5 min 0,000 mm 1,0 UV-I 700 W/m 7,1 C 20,1 C 4,0 km/h (1 Bft) 0,00 %
11.09.2015 16:16 20,1 C 42 % 1017,8 hPa 0,0 l/m 0,0 km/h (0 Bft) N-NW 328 5 min 0,000 mm 1,0 UV-I 695 W/m 6,8 C 20,1 C 0,0 km/h (0 Bft) 0,00 %
11.09.2015 16:21 20,2 C 43 % 1017,8 hPa 0,0 l/m 0,4 km/h (0 Bft) O-SO 114 5 min 0,000 mm 1,0 UV-I 695 W/m 7,2 C 20,2 C 4,0 km/h (1 Bft) 0,00 %
11.09.2015 16:26 20,3 C 42 % 1017,7 hPa 0,0 l/m 2,9 km/h (1 Bft) NO 49 5 min 0,000 mm 1,0 UV-I 690 W/m 7,0 C 20,3 C 4,0 km/h (1 Bft) 0,00 %
11.09.2015 16:31 20,4 C 43 % 1017,9 hPa 0,0 l/m 0,0 km/h (0 Bft) NO 41 5 min 0,000 mm 1,0 UV-I 685 W/m 7,4 C 20,4 C 0,0 km/h (0 Bft) 0,00 %
11.09.2015 16:36 20,3 C 43 % 1017,7 hPa 0,0 l/m 1,4 km/h (1 Bft) NO 55 5 min 0,000 mm 1,0 UV-I 685 W/m 7,3 C 20,3 C 4,0 km/h (1 Bft) 0,00 %
11.09.2015 16:41 20,3 C 43 % 1017,9 hPa 0,0 l/m 1,4 km/h (1 Bft) O-NO 72 5 min 0,000 mm 1,0 UV-I 680 W/m 7,3 C 20,3 C 4,0 km/h (1 Bft) 0,00 %
11.09.2015 16:46 20,3 C 43 % 1017,8 hPa 0,0 l/m 0,0 km/h (0 Bft) O 101 5 min 0,000 mm 1,0 UV-I 680 W/m 7,3 C 20,3 C 0,0 km/h (0 Bft) 0,00 %
11.09.2015 16:51 20,4 C 42 % 1017,9 hPa 0,0 l/m 0,4 km/h (0 Bft) N 353 5 min 0,000 mm 1,0 UV-I 686 W/m 7,1 C 20,4 C 4,0 km/h (1 Bft) 0,00 %
11.09.2015 16:56 20,5 C 42 % 1017,7 hPa 0,0 l/m 2,9 km/h (1 Bft) O 91 5 min 0,000 mm 1,0 UV-I 642 W/m 7,1 C 20,5 C 7,9 km/h (2 Bft) 0,00 %
11.09.2015 17:01 20,6 C 43 % 1017,8 hPa 0,0 l/m 1,4 km/h (1 Bft) O-SO 117 5 min 0,000 mm 1,0 UV-I 667 W/m 7,6 C 20,6 C 4,0 km/h (1 Bft) 0,00 %
11.09.2015 17:06 20,8 C 39 % 1017,8 hPa 0,0 l/m 1,4 km/h (1 Bft) O-NO 67 5 min 0,000 mm 1,0 UV-I 653 W/m 6,3 C 20,8 C 4,0 km/h (1 Bft) 0,00 %
11.09.2015 17:11 21,1 C 39 % 1017,7 hPa 0,0 l/m 0,0 km/h (0 Bft) O 85 5 min 0,000 mm 1,0 UV-I 636 W/m 6,6 C 21,1 C 0,0 km/h (0 Bft) 0,00 %
11.09.2015 17:16 21,2 C 40 % 1017,5 hPa 0,0 l/m 0,0 km/h (0 Bft) O-NO 66 5 min 0,000 mm 1,0 UV-I 554 W/m 7,1 C 21,2 C 0,0 km/h (0 Bft) 0,00 %
11.09.2015 17:21 21,2 C 39 % 1017,8 hPa 0,0 l/m 1,8 km/h (1 Bft) O 82 5 min 0,000 mm 1,0 UV-I 605 W/m 6,7 C 21,2 C 4,0 km/h (1 Bft) 0,00 %
11.09.2015 17:26 21,0 C 41 % 1017,8 hPa 0,0 l/m 0,0 km/h (0 Bft) O 94 5 min 0,000 mm 1,0 UV-I 602 W/m 7,2 C 21,0 C 0,0 km/h (0 Bft) 0,00 %
11.09.2015 17:31 20,9 C 40 % 1017,6 hPa 0,0 l/m 6,8 km/h (2 Bft) O 84 5 min 0,000 mm 1,0 UV-I 582 W/m 6,8 C 20,8 C 7,9 km/h (2 Bft) 0,00 %
11.09.2015 17:36 20,9 C 41 % 1017,5 hPa 0,0 l/m 0,7 km/h (0 Bft) NO 41 5 min 0,000 mm 1,0 UV-I 556 W/m 7,2 C 20,9 C 4,0 km/h (1 Bft) 0,00 %
11.09.2015 17:41 20,9 C 42 % 1017,6 hPa 0,0 l/m 0,0 km/h (0 Bft) O 91 5 min 0,000 mm 1,0 UV-I 525 W/m 7,5 C 20,9 C 0,0 km/h (0 Bft) 0,00 %
11.09.2015 17:46 20,9 C 43 % 1017,7 hPa 0,0 l/m 2,2 km/h (1 Bft) SO 124 5 min 0,000 mm 1,0 UV-I 525 W/m 7,8 C 20,9 C 4,0 km/h (1 Bft) 0,00 %
11.09.2015 17:51 20,8 C 44 % 1017,5 hPa 0,0 l/m 6,5 km/h (2 Bft) O 95 5 min 0,000 mm 1,0 UV-I 458 W/m 8,1 C 20,8 C 7,9 km/h (2 Bft) 0,00 %
11.09.2015 17:56 20,6 C 44 % 1017,6 hPa 0,0 l/m 4,0 km/h (1 Bft) O 90 5 min 0,000 mm 1,0 UV-I 255 W/m 7,9 C 20,6 C 7,9 km/h (2 Bft) 0,00 %
11.09.2015 18:01 20,3 C 46 % 1017,7 hPa 0,0 l/m 3,2 km/h (1 Bft) O-NO 60 5 min 0,000 mm 1,0 UV-I 346 W/m 8,3 C 20,3 C 7,9 km/h (2 Bft) 0,00 %
11.09.2015 18:06 20,0 C 49 % 1017,5 hPa 0,0 l/m 5,4 km/h (1 Bft) SO 130 5 min 0,000 mm 0,0 UV-I 370 W/m 9,0 C 20,0 C 7,9 km/h (2 Bft) 0,00 %
11.09.2015 18:11 19,7 C 51 % 1017,6 hPa 0,0 l/m 6,5 km/h (2 Bft) SO 133 5 min 0,000 mm 0,0 UV-I 340 W/m 9,3 C 19,7 C 7,9 km/h (2 Bft) 0,00 %
11.09.2015 18:16 19,5 C 52 % 1017,6 hPa 0,0 l/m 7,2 km/h (2 Bft) O-SO 114 5 min 0,000 mm 0,0 UV-I 366 W/m 9,4 C 19,2 C 11,9 km/h (2 Bft) 0,00 %
11.09.2015 18:21 19,4 C 52 % 1017,6 hPa 0,0 l/m 0,0 km/h (0 Bft) O-SO 105 5 min 0,000 mm 0,0 UV-I 107 W/m 9,3 C 19,4 C 0,0 km/h (0 Bft) 0,00 %
11.09.2015 18:26 19,3 C 52 % 1017,5 hPa 0,0 l/m 2,9 km/h (1 Bft) O 99 5 min 0,000 mm 0,0 UV-I 232 W/m 9,2 C 19,3 C 7,9 km/h (2 Bft) 0,00 %
11.09.2015 18:31 19,2 C 53 % 1017,5 hPa 0,0 l/m 1,4 km/h (1 Bft) O 96 5 min 0,000 mm 0,0 UV-I 169 W/m 9,4 C 19,2 C 4,0 km/h (1 Bft) 0,00 %
11.09.2015 18:36 18,9 C 55 % 1017,5 hPa 0,0 l/m 0,0 km/h (0 Bft) NO 48 5 min 0,000 mm 0,0 UV-I 128 W/m 9,7 C 18,9 C 0,0 km/h (0 Bft) 0,00 %
11.09.2015 18:41 18,7 C 56 % 1017,4 hPa 0,0 l/m 0,0 km/h (0 Bft) NO 37 0 min 0,000 mm 0,0 UV-I 51 W/m 9,7 C 18,7 C 0,0 km/h (0 Bft) 0,00 %
11.09.2015 18:46 18,4 C 58 % 1017,6 hPa 0,0 l/m 0,0 km/h (0 Bft) SO 130 0 min 0,000 mm 0,0 UV-I 39 W/m 10,0 C 18,4 C 0,0 km/h (0 Bft) 0,00 %
11.09.2015 18:51 18,1 C 61 % 1017,6 hPa 0,0 l/m 0,4 km/h (0 Bft) O-SO 102 0 min 0,000 mm 0,0 UV-I 30 W/m 10,5 C 18,1 C 4,0 km/h (1 Bft) 0,00 %
11.09.2015 18:56 17,7 C 62 % 1017,5 hPa 0,0 l/m 4,7 km/h (1 Bft) S 177 0 min 0,000 mm 0,0 UV-I 24 W/m 10,3 C 17,7 C 7,9 km/h (2 Bft) 0,00 %
11.09.2015 19:01 17,4 C 63 % 1017,6 hPa 0,0 l/m 2,2 km/h (1 Bft) O-SO 108 0 min 0,000 mm 0,0 UV-I 19 W/m 10,3 C 17,4 C 4,0 km/h (1 Bft) 0,00 %
11.09.2015 19:06 17,2 C 64 % 1017,6 hPa 0,0 l/m 1,8 km/h (1 Bft) O-SO 113 0 min 0,000 mm 0,0 UV-I 11 W/m 10,3 C 17,2 C 4,0 km/h (1 Bft) 0,00 %
11.09.2015 19:11 17,0 C 67 % 1017,7 hPa 0,0 l/m 4,0 km/h (1 Bft) O-SO 122 0 min 0,000 mm 0,0 UV-I 6 W/m 10,8 C 17,0 C 7,9 km/h (2 Bft) 0,00 %
11.09.2015 19:16 16,8 C 68 % 1017,9 hPa 0,0 l/m 0,7 km/h (0 Bft) O 89 0 min 0,000 mm 0,0 UV-I 2 W/m 10,9 C 16,8 C 4,0 km/h (1 Bft) 0,00 %
11.09.2015 19:21 16,6 C 69 % 1017,8 hPa 0,0 l/m 2,2 km/h (1 Bft) S-SO 159 0 min 0,000 mm 0,0 UV-I 0 W/m 10,9 C 16,6 C 7,9 km/h (2 Bft) 0,00 %
11.09.2015 19:26 16,5 C 69 % 1017,8 hPa 0,0 l/m 0,4 km/h (0 Bft) O-NO 60 0 min 0,000 mm 0,0 UV-I 0 W/m 10,8 C 16,5 C 4,0 km/h (1 Bft) 0,00 %
11.09.2015 19:31 16,4 C 70 % 1017,8 hPa 0,0 l/m 2,9 km/h (1 Bft) O-NO 68 0 min 0,000 mm 0,0 UV-I 0 W/m 10,9 C 16,4 C 4,0 km/h (1 Bft) 0,00 %
11.09.2015 19:36 16,2 C 70 % 1017,8 hPa 0,0 l/m 0,7 km/h (0 Bft) SO 131 0 min 0,000 mm 0,0 UV-I 0 W/m 10,7 C 16,2 C 4,0 km/h (1 Bft) 0,00 %
11.09.2015 19:41 16,0 C 71 % 1018,0 hPa 0,0 l/m 1,8 km/h (1 Bft) O-SO 114 0 min 0,000 mm 0,0 UV-I 0 W/m 10,7 C 16,0 C 4,0 km/h (1 Bft) 0,00 %
11.09.2015 19:46 15,9 C 73 % 1017,9 hPa 0,0 l/m 4,0 km/h (1 Bft) O-SO 106 0 min 0,000 mm 0,0 UV-I 0 W/m 11,1 C 15,9 C 7,9 km/h (2 Bft) 0,00 %
11.09.2015 19:51 15,8 C 73 % 1018,0 hPa 0,0 l/m 0,0 km/h (0 Bft) O-NO 74 0 min 0,000 mm 0,0 UV-I 0 W/m 11,0 C 15,8 C 0,0 km/h (0 Bft) 0,00 %
11.09.2015 19:56 15,6 C 74 % 1018,0 hPa 0,0 l/m 0,0 km/h (0 Bft) O 83 0 min 0,000 mm 0,0 UV-I 0 W/m 11,0 C 15,6 C 0,0 km/h (0 Bft) 0,00 %
11.09.2015 20:02 15,4 C 76 % 1018,3 hPa 0,0 l/m 0,0 km/h (0 Bft) O 82 0 min 0,000 mm 0,0 UV-I 0 W/m 11,2 C 15,4 C 0,0 km/h (0 Bft) 0,00 %
11.09.2015 20:07 15,2 C 77 % 1018,3 hPa 0,0 l/m 0,0 km/h (0 Bft) N-NO 25 0 min 0,000 mm 0,0 UV-I 0 W/m 11,2 C 15,2 C 0,0 km/h (0 Bft) 0,00 %
11.09.2015 20:12 15,0 C 79 % 1018,3 hPa 0,0 l/m 0,7 km/h (0 Bft) N-NO 27 0 min 0,000 mm 0,0 UV-I 0 W/m 11,4 C 15,0 C 4,0 km/h (1 Bft) 0,00 %
11.09.2015 20:17 14,9 C 80 % 1018,3 hPa 0,0 l/m 0,0 km/h (0 Bft) NO 54 0 min 0,000 mm 0,0 UV-I 0 W/m 11,5 C 14,9 C 0,0 km/h (0 Bft) 0,00 %
11.09.2015 20:22 14,9 C 80 % 1018,5 hPa 0,0 l/m 0,0 km/h (0 Bft) O 80 0 min 0,000 mm 0,0 UV-I 0 W/m 11,5 C 14,9 C 0,0 km/h (0 Bft) 0,00 %
11.09.2015 20:27 14,9 C 80 % 1018,6 hPa 0,0 l/m 0,0 km/h (0 Bft) S-SO 153 0 min 0,000 mm 0,0 UV-I 0 W/m 11,5 C 14,9 C 0,0 km/h (0 Bft) 0,00 %
11.09.2015 20:32 14,9 C 80 % 1018,6 hPa 0,0 l/m 4,0 km/h (1 Bft) O-NO 64 0 min 0,000 mm 0,0 UV-I 0 W/m 11,5 C 14,9 C 7,9 km/h (2 Bft) 0,00 %
11.09.2015 20:37 14,9 C 80 % 1018,7 hPa 0,0 l/m 1,8 km/h (1 Bft) O-SO 116 0 min 0,000 mm 0,0 UV-I 0 W/m 11,5 C 14,9 C 4,0 km/h (1 Bft) 0,00 %
11.09.2015 20:42 14,9 C 80 % 1018,8 hPa 0,0 l/m 0,0 km/h (0 Bft) N-NO 24 0 min 0,000 mm 0,0 UV-I 0 W/m 11,5 C 14,9 C 0,0 km/h (0 Bft) 0,00 %
11.09.2015 20:47 14,9 C 80 % 1019,1 hPa 0,0 l/m 0,0 km/h (0 Bft) NO 50 0 min 0,000 mm 0,0 UV-I 0 W/m 11,5 C 14,9 C 0,0 km/h (0 Bft) 0,00 %
11.09.2015 20:52 14,8 C 80 % 1019,5 hPa 0,0 l/m 0,0 km/h (0 Bft) W-SW 255 0 min 0,000 mm 0,0 UV-I 0 W/m 11,4 C 14,8 C 0,0 km/h (0 Bft) 0,00 %
11.09.2015 20:57 14,8 C 81 % 1020,1 hPa 0,0 l/m 0,0 km/h (0 Bft) N 355 0 min 0,000 mm 0,0 UV-I 0 W/m 11,6 C 14,8 C 0,0 km/h (0 Bft) 0,00 %
11.09.2015 21:02 14,8 C 81 % 1020,0 hPa 0,0 l/m 0,0 km/h (0 Bft) NO 44 0 min 0,000 mm 0,0 UV-I 0 W/m 11,6 C 14,8 C 0,0 km/h (0 Bft) 0,00 %
11.09.2015 21:07 14,8 C 81 % 1020,1 hPa 0,0 l/m 0,0 km/h (0 Bft) N-NO 32 0 min 0,000 mm 0,0 UV-I 0 W/m 11,6 C 14,8 C 0,0 km/h (0 Bft) 0,00 %
11.09.2015 21:12 14,8 C 81 % 1020,0 hPa 0,0 l/m 0,0 km/h (0 Bft) NO 45 0 min 0,000 mm 0,0 UV-I 0 W/m 11,6 C 14,8 C 0,0 km/h (0 Bft) 0,00 %
11.09.2015 21:17 14,8 C 81 % 1019,6 hPa 0,0 l/m 0,0 km/h (0 Bft) NO 37 0 min 0,000 mm 0,0 UV-I 0 W/m 11,6 C 14,8 C 0,0 km/h (0 Bft) 0,00 %
11.09.2015 21:22 14,8 C 82 % 1019,5 hPa 0,0 l/m 0,0 km/h (0 Bft) O-NO 63 0 min 0,000 mm 0,0 UV-I 0 W/m 11,8 C 14,8 C 0,0 km/h (0 Bft) 0,00 %
11.09.2015 21:27 14,7 C 82 % 1019,6 hPa 0,0 l/m 0,4 km/h (0 Bft) O-NO 62 0 min 0,000 mm 0,0 UV-I 0 W/m 11,7 C 14,7 C 4,0 km/h (1 Bft) 0,00 %
11.09.2015 21:32 14,7 C 82 % 1019,6 hPa 0,0 l/m 0,0 km/h (0 Bft) NO 52 0 min 0,000 mm 0,0 UV-I 0 W/m 11,7 C 14,7 C 0,0 km/h (0 Bft) 0,00 %
11.09.2015 21:37 14,5 C 83 % 1019,5 hPa 0,0 l/m 1,8 km/h (1 Bft) O-SO 110 0 min 0,000 mm 0,0 UV-I 0 W/m 11,6 C 14,5 C 4,0 km/h (1 Bft) 0,00 %
11.09.2015 21:42 14,3 C 83 % 1019,4 hPa 0,0 l/m 4,7 km/h (1 Bft) SO 133 0 min 0,000 mm 0,0 UV-I 0 W/m 11,5 C 14,3 C 7,9 km/h (2 Bft) 0,00 %
11.09.2015 21:47 14,2 C 83 % 1019,4 hPa 0,0 l/m 2,9 km/h (1 Bft) SO 124 0 min 0,000 mm 0,0 UV-I 0 W/m 11,4 C 14,2 C 7,9 km/h (2 Bft) 0,00 %
11.09.2015 21:52 14,2 C 83 % 1019,2 hPa 0,0 l/m 0,0 km/h (0 Bft) NO 56 0 min 0,000 mm 0,0 UV-I 0 W/m 11,4 C 14,2 C 0,0 km/h (0 Bft) 0,00 %
11.09.2015 21:57 14,1 C 83 % 1019,1 hPa 0,0 l/m 1,8 km/h (1 Bft) NO 45 0 min 0,000 mm 0,0 UV-I 0 W/m 11,3 C 14,1 C 4,0 km/h (1 Bft) 0,00 %
11.09.2015 22:02 14,0 C 85 % 1019,1 hPa 0,0 l/m 6,5 km/h (2 Bft) O-SO 109 0 min 0,000 mm 0,0 UV-I 0 W/m 11,5 C 14,0 C 7,9 km/h (2 Bft) 0,00 %
11.09.2015 22:07 13,9 C 85 % 1019,2 hPa 0,0 l/m 0,0 km/h (0 Bft) NO 40 0 min 0,000 mm 0,0 UV-I 0 W/m 11,4 C 13,9 C 0,0 km/h (0 Bft) 0,00 %
11.09.2015 22:12 13,8 C 85 % 1019,0 hPa 0,0 l/m 5,4 km/h (1 Bft) O-SO 120 0 min 0,000 mm 0,0 UV-I 0 W/m 11,3 C 13,8 C 7,9 km/h (2 Bft) 0,00 %
11.09.2015 22:17 13,8 C 85 % 1019,0 hPa 0,0 l/m 2,2 km/h (1 Bft) O-SO 108 0 min 0,000 mm 0,0 UV-I 0 W/m 11,3 C 13,8 C 7,9 km/h (2 Bft) 0,00 %
11.09.2015 22:22 13,7 C 85 % 1019,0 hPa 0,0 l/m 1,8 km/h (1 Bft) O-NO 75 0 min 0,000 mm 0,0 UV-I 0 W/m 11,2 C 13,7 C 4,0 km/h (1 Bft) 0,00 %
11.09.2015 22:27 13,7 C 85 % 1019,1 hPa 0,0 l/m 2,9 km/h (1 Bft) O-SO 120 0 min 0,000 mm 0,0 UV-I 0 W/m 11,2 C 13,7 C 4,0 km/h (1 Bft) 0,00 %
11.09.2015 22:32 13,6 C 85 % 1019,1 hPa 0,0 l/m 1,8 km/h (1 Bft) O 87 0 min 0,000 mm 0,0 UV-I 0 W/m 11,1 C 13,6 C 4,0 km/h (1 Bft) 0,00 %
11.09.2015 22:37 13,6 C 85 % 1019,1 hPa 0,0 l/m 4,3 km/h (1 Bft) O-SO 115 0 min 0,000 mm 0,0 UV-I 0 W/m 11,1 C 13,6 C 7,9 km/h (2 Bft) 0,00 %
11.09.2015 22:42 13,5 C 86 % 1019,1 hPa 0,0 l/m 0,7 km/h (0 Bft) O-SO 111 0 min 0,000 mm 0,0 UV-I 0 W/m 11,2 C 13,5 C 4,0 km/h (1 Bft) 0,00 %
11.09.2015 22:47 13,4 C 86 % 1019,1 hPa 0,0 l/m 2,2 km/h (1 Bft) O-NO 57 0 min 0,000 mm 0,0 UV-I 0 W/m 11,1 C 13,4 C 7,9 km/h (2 Bft) 0,00 %
11.09.2015 22:52 13,3 C 86 % 1019,2 hPa 0,0 l/m 2,2 km/h (1 Bft) O-SO 111 0 min 0,000 mm 0,0 UV-I 0 W/m 11,0 C 13,3 C 4,0 km/h (1 Bft) 0,00 %
11.09.2015 22:57 13,2 C 87 % 1019,0 hPa 0,0 l/m 0,0 km/h (0 Bft) O-NO 73 0 min 0,000 mm 0,0 UV-I 0 W/m 11,1 C 13,2 C 0,0 km/h (0 Bft) 0,00 %
11.09.2015 23:02 13,0 C 88 % 1019,1 hPa 0,0 l/m 0,4 km/h (0 Bft) O-NO 69 0 min 0,000 mm 0,0 UV-I 0 W/m 11,1 C 13,0 C 4,0 km/h (1 Bft) 0,00 %
11.09.2015 23:07 12,8 C 88 % 1018,8 hPa 0,0 l/m 0,0 km/h (0 Bft) O 87 0 min 0,000 mm 0,0 UV-I 0 W/m 10,9 C 12,8 C 0,0 km/h (0 Bft) 0,00 %
11.09.2015 23:12 12,6 C 89 % 1019,0 hPa 0,0 l/m 1,4 km/h (1 Bft) O-NO 69 0 min 0,000 mm 0,0 UV-I 0 W/m 10,8 C 12,6 C 4,0 km/h (1 Bft) 0,00 %
11.09.2015 23:17 12,6 C 90 % 1019,0 hPa 0,0 l/m 0,0 km/h (0 Bft) NO 39 0 min 0,000 mm 0,0 UV-I 0 W/m 11,0 C 12,6 C 0,0 km/h (0 Bft) 0,00 %
11.09.2015 23:22 12,6 C 90 % 1019,0 hPa 0,0 l/m 0,0 km/h (0 Bft) O-NO 60 0 min 0,000 mm 0,0 UV-I 0 W/m 11,0 C 12,6 C 0,0 km/h (0 Bft) 0,00 %
11.09.2015 23:27 12,5 C 90 % 1019,1 hPa 0,0 l/m 0,0 km/h (0 Bft) NO 46 0 min 0,000 mm 0,0 UV-I 0 W/m 10,9 C 12,5 C 0,0 km/h (0 Bft) 0,00 %
11.09.2015 23:32 12,4 C 90 % 1019,0 hPa 0,0 l/m 0,0 km/h (0 Bft) NO 43 0 min 0,000 mm 0,0 UV-I 0 W/m 10,8 C 12,4 C 0,0 km/h (0 Bft) 0,00 %
11.09.2015 23:37 12,3 C 91 % 1019,0 hPa 0,0 l/m 0,7 km/h (0 Bft) SO 132 0 min 0,000 mm 0,0 UV-I 0 W/m 10,9 C 12,3 C 4,0 km/h (1 Bft) 0,00 %
11.09.2015 23:42 12,3 C 91 % 1019,0 hPa 0,0 l/m 0,0 km/h (0 Bft) O 92 0 min 0,000 mm 0,0 UV-I 0 W/m 10,9 C 12,3 C 0,0 km/h (0 Bft) 0,00 %
11.09.2015 23:47 12,2 C 91 % 1018,9 hPa 0,0 l/m 0,0 km/h (0 Bft) NO 51 0 min 0,000 mm 0,0 UV-I 0 W/m 10,8 C 12,2 C 0,0 km/h (0 Bft) 0,00 %
11.09.2015 23:52 12,1 C 91 % 1019,0 hPa 0,0 l/m 0,0 km/h (0 Bft) NO 47 0 min 0,000 mm 0,0 UV-I 0 W/m 10,7 C 12,1 C 0,0 km/h (0 Bft) 0,00 %
11.09.2015 23:57 11,9 C 91 % 1019,0 hPa 0,0 l/m 0,0 km/h (0 Bft) O 86 0 min 0,000 mm 0,0 UV-I 0 W/m 10,5 C 11,9 C 0,0 km/h (0 Bft) 0,00 %
_ Min-Zeit 04:51 17:06 04:41 - 00:05 - - - - - - 05:31 04:51 00:05 00:00
Minimum _ 4,7 C 39 % 1017,4 hPa - 0,0 km/h (0 Bft) - - - - - - 4,4 C 4,7 C 0,0 km/h (0 Bft) 0,00 %
_ Max-Zeit 17:16 03:31 20:57 00:00 08:01 - - 06:46 00:00 11:46 14:36 21:22 17:16 08:56 00:00
Maximum _ 21,2 C 99 % 1020,1 hPa 0,0 l/m 11,5 km/h
O (2 Bft)
- - 5 min 0,000 mm 3,0 UV-I 752 W/m 11,8 C 21,2 C 19,8 km/h
SO (3 Bft)
0,00 %
Durchschnitt _ 12,8 C 76 % 1018,4 hPa #0,0 l/m 1,2 km/h (1 Bft) O-SO - #8:10 h #0,000 mm 1,5 UV-I 419 W/m 7,9 C 12,8 C 2,5 km/h (1 Bft) 0,00 %